Location: Kellogg
(38.0159°N, 90.0546°W)
Time: 01:36:56
(UTC+00:00)

SR - Pass Details

Date: 11 September 2024
Orbit: 577 x 855 km, 66.7° (Epoch: 10 October)

Event Time Altitude Azimuth Distance (km) Brightness Sun altitude
Rises 20:06:11 0° 218° (SW) 2,836 ? 45.1°
Reaches altitude 10° 20:08:29 10° 223° (SW) 1,914 ? 44.7°
Maximum altitude 20:12:39 53° 301° (WNW) 711 ? 44.1°
Drops below altitude 10° 20:16:47 10° 19° (NNE) 1,895 ? 43.4°
Sets 20:19:04 0° 24° (NNE) 2,806 ? 43.1°
